Location: Killam
(52.7910°N, 111.8608°W)
Time: 05:06:59
(UTC+00:00)

A-11 Canister half - Pass Details

Date: 24 February 2026
Orbit: 1524 x 1683 km, 47.3° (Epoch: 13 March)

Event Time Altitude Azimuth Distance (km) Brightness Sun altitude
Rises 03:16:16 0° 280° (W) 4,693 13.1 -21.9°
Reaches altitude 10° 03:19:27 10° 275° (W) 3,700 12.1 -22.4°
Maximum altitude 03:28:09 47° 205° (SSW) 1,934 9.5 -23.6°
Enters shadow 03:32:54 27° 150° (SSE) 2,595 9.8 -24.3°
Drops below altitude 10° 03:36:54 10° 136° (SE) 3,709 - -24.9°
Sets 03:40:05 0° 130° (SE) 4,705 - -25.3°
